DECAYED

FENGYUN 1C DEB, 30190 (Decayed)

Orbit data source: Space-Track

FENGYUN 1C DEB, 30190 was space debris in LEO originally from a launch on Mon, 10 May 1999 UTC launched from the Taiyaun Space Center, China (TSC). Fengyun 1C debris stems from the Chinese weather satellite Fengyun-1C, which was intentionally destroyed by a Chinese anti-satellite missile in 2007. This event dramatically increased the amount of space debris, with thousands of trackable fragments posing hazards to satellites and human spaceflight. The Fengyun 1C debris cloud has become a focal point in discussions about space sustainability and the need for international regulations to prevent the creation of new debris.

Not visible in the next 10 days
Identifier
30190, 1999-025UX
Orbit
Decayed
Country
Flag of CNCN / PRC
Related business
Manufacturer
Unknown
Mission
Decayed spacecraft
Bus & Motor
Unknown
Mass
Unknown
Launch date (UTC)
1999-05-10 (27 years ago)
Launch vehicle
Unknown
Launch site
Taiyaun Space Center, China (TSC)
Object type
Payload
Rocket body
Debris
Shape & HBR
Unknown shape, 0.1 m
Radar Cross Section
Medium (>0.1 m² and <1 m²)

Expand to show TLE details & history
Last TLE update: 1 year ago

TLE from 1 year ago
0 FENGYUN 1C DEB
1 30190U 99025UX  25132.50732664  .09278514  33752-5  45662-2 0  9990
2 30190  98.9013  85.1308 0013200 206.3393 153.7222 16.20778415978638
Epoch: 2025-05-12T12:10Z
TLE epoch observation values (Epoch: 2025-05-12T12:10:33.021Z)
Latitude
-0.00002°
Longitude
31.9738°
Altitude
228.426 km
Speed
7.765 km/s
True Right ascension
05h 40m 31s
True Declination
0° 00' 00"
Sunlit
Object was in daylight at epoch
Visualization orbit readout
Latitude
Unknown
Longitude
Unknown
Altitude
Unknown
Speed
Unknown
Apparent Right ascension
Unknown
Apparent Declination
Unknown
Sunlit
N/A
Visualization observer readout
Local Sidereal Time
02:02:19
Azimuth
Unknown
Elevation
Unknown
Doppler factor
Unknown
Orbital elements
Apogee altitude
223.048 km
Perigee altitude
205.643 km
Semi-major axis
6,592.482 km
Eccentricity
0.00132
Inclination
98.9013°
RAAN
85.1308°
Arg. of periapsis
206.3393°
True anomaly
153.78907°
Mean anomaly
153.7222°
Eccentric anomaly
153.75564°
Mean motion
4.0548 °/min
Orbital period
88.78 mins
BSTAR
0.0045662
Loading maneuver chart data...
Computing Atmospheric mass density...
Loading historical data...
Loading historical data...
Loading historical data...
Loading historical data...
Loading historical data...
Loading historical data...
Loading historical data...

Documentation

Showing up to 5 results
|